Location: Vancouver
(49.2500°N, 123.1330°W)
Time: 12:41:01
(UTC-07:00)

AO-27 - Visible Passes

Search period start: 24 August 2016 00:00
Search period end: 03 September 2016 00:00
Orbit: 785 x 798 km, 98.8° (Epoch: 23 August)

Date Brightness Start Highest point End Pass type
(mag) Time Alt. Az. Time Alt. Az. Time Alt. Az.
24 Aug 7.9 04:15:30 10° NNE 04:20:41 67° ESE 04:24:46 16° S visible
25 Aug 8.8 03:46:42 10° NNE 03:51:32 38° E 03:55:19 16° SSE visible
25 Aug 8.4 05:26:20 10° N 05:31:00 35° WNW 05:35:39 10° SW visible
26 Aug 9.6 03:18:14 10° NE 03:22:16 23° E 03:25:52 12° SE visible
26 Aug 7.8 04:57:03 10° N 05:02:09 58° WNW 05:06:37 13° SW visible
27 Aug 10.2 02:50:34 10° ENE 02:52:53 13° E 02:55:10 10° ESE visible
27 Aug 7.7 04:27:57 10° NNE 04:33:11 83° ESE 04:37:11 17° SSW visible
28 Aug 8.4 03:59:04 10° NNE 04:04:06 48° E 04:07:44 18° SSE visible
28 Aug 8.7 05:38:58 10° N 05:43:23 29° WNW 05:47:46 10° WSW visible
29 Aug 9.3 03:30:25 10° NE 03:34:53 28° E 03:38:17 15° SE visible
29 Aug 8.0 05:09:37 10° N 05:14:34 47° WNW 05:19:01 13° SW visible
30 Aug 10.0 03:02:18 10° NE 03:05:32 16° E 03:08:45 10° SE visible
30 Aug 7.6 04:40:27 10° NNE 04:45:40 79° WNW 04:49:35 18° SSW visible
31 Aug 8.0 04:11:28 10° NNE 04:16:37 61° ESE 04:20:08 20° S visible
31 Aug 8.9 05:51:40 10° N 05:55:44 24° WNW 05:59:47 10° WSW visible
01 Sep 8.9 03:42:42 10° NNE 03:47:27 35° E 03:50:40 18° SSE visible
01 Sep 8.3 05:22:13 10° N 05:26:59 38° WNW 05:31:26 11° SW visible
02 Sep 9.7 03:14:18 10° NE 03:18:10 21° E 03:21:13 13° SE visible
02 Sep 7.7 04:52:58 10° N 04:58:07 63° WNW 05:01:59 18° SSW visible
